Weather History for KALN - May, 2013

Change the Weather History Date:

Sunday, May 26, 2013

  Actual Average Record
Temperature  
Mean Temperature 66 °F -  
Max Temperature 79 °F 74 °F 93 °F (2012)
Min Temperature 54 °F 58 °F 50 °F (2005)
Cooling Degree Days 1    
Growing Degree Days 16 (Base 50)    
Moisture  
Dew Point 52 °F    
Average Humidity 68    
Maximum Humidity 77    
Minimum Humidity 54    
Precipitation  
Precipitation 0.00 in - - ()
Sea Level Pressure  
Sea Level Pressure 30.14 in    
Wind  
Wind Speed 9 mph (ESE)    
Max Wind Speed 16 mph    
Max Gust Speed 21 mph    
Visibility 10 miles    
Events      
Averages and records for this station are not official NWS values.
T = Trace of Precipitation, MM = Missing Value Source: NWS Daily Summary

Daily Weather History Graph

Daily Weather History Graph

Search for Another Location

Airport or City:

Trip Planner

Search our weather history database for the weather conditions in past years. The results will help you decide how hot, cold, wet, or windy it might be!

Date:

Astronomy

May. 26, 2013 Rise Set
Actual Time 5:39 AM CDT 8:15 PM CDT
Civil Twilight 5:08 AM CDT 8:46 PM CDT
Nautical Twilight 4:29 AM CDT 9:25 PM CDT
Astronomical Twilight 3:46 AM CDT 10:08 PM CDT
Moon 10:03 PM CDT (5/26) 7:08 AM CDT (5/26)
Length of Visible Light 15h 37m
Length of Day
14h 35m
Waning Gibbous, 96% of the Moon is Illuminated
May 26
Waning Gibbous
May 31
Last Quarter
Jun 8
New
Jun 16
First Quarter
Jun 23
Full

Hourly Weather History & Observations

Time (CDT) Temp. Dew Point Humidity Pressure Visibility Wind Dir Wind Speed Gust Speed Precip Events Conditions
12:15 AM 57.7 °F 46.9 °F 67% 30.22 in 10.0 mi East 8.1 mph - N/A   Scattered Clouds
12:35 AM 57.6 °F 47.3 °F 69% 30.22 in 10.0 mi East 8.1 mph - N/A   Scattered Clouds
12:55 AM 57.4 °F 46.8 °F 68% 30.21 in 10.0 mi East 8.1 mph - N/A   Scattered Clouds
1:15 AM 57.6 °F 46.6 °F 67% 30.20 in 10.0 mi East 10.4 mph - N/A   Scattered Clouds
1:35 AM 57.4 °F 46.6 °F 67% 30.19 in 10.0 mi East 11.5 mph - N/A   Mostly Cloudy
1:55 AM 57.2 °F 46.8 °F 68% 30.19 in 10.0 mi East 10.4 mph - N/A   Mostly Cloudy
2:15 AM 57.0 °F 46.8 °F 69% 30.19 in 10.0 mi East 6.9 mph - N/A   Mostly Cloudy
2:35 AM 56.8 °F 46.8 °F 69% 30.19 in 10.0 mi East 8.1 mph - N/A   Mostly Cloudy
2:55 AM 56.5 °F 46.8 °F 70% 30.18 in 10.0 mi East 9.2 mph - N/A   Mostly Cloudy
3:15 AM 56.3 °F 46.8 °F 70% 30.18 in 10.0 mi East 6.9 mph - N/A   Mostly Cloudy
3:35 AM 55.9 °F 46.4 °F 70% 30.18 in 10.0 mi East 6.9 mph - N/A   Scattered Clouds
3:55 AM 55.8 °F 46.4 °F 71% 30.18 in 10.0 mi East 8.1 mph - N/A   Mostly Cloudy
4:15 AM 55.4 °F 46.8 °F 73% 30.18 in 10.0 mi East 6.9 mph - N/A   Mostly Cloudy
4:35 AM 55.4 °F 46.8 °F 73% 30.18 in 10.0 mi East 5.8 mph - N/A   Mostly Cloudy
4:55 AM 55.0 °F 46.9 °F 74% 30.19 in 10.0 mi East 4.6 mph - N/A   Mostly Cloudy
5:15 AM 54.9 °F 47.3 °F 76% 30.19 in 10.0 mi ESE 6.9 mph - N/A   Clear
5:35 AM 54.9 °F 47.3 °F 76% 30.19 in 10.0 mi East 6.9 mph - N/A   Clear
5:55 AM 54.9 °F 47.3 °F 76% 30.18 in 10.0 mi ESE 6.9 mph - N/A   Clear
6:15 AM 54.7 °F 47.7 °F 77% 30.18 in 10.0 mi East 6.9 mph - N/A   Clear
6:35 AM 55.4 °F 48.2 °F 77% 30.18 in 10.0 mi ESE 8.1 mph - N/A   Clear
6:50 AM 55.4 °F 48.2 °F 77% 30.18 in 10.0 mi ESE 9.2 mph - N/A   Clear
6:55 AM 56.1 °F 48.4 °F 75% 30.18 in 10.0 mi ESE 8.1 mph - N/A   Clear
7:50 AM 59.0 °F 50.0 °F 72% 30.20 in 10.0 mi ESE 12.7 mph - N/A   Clear
8:50 AM 60.8 °F 50.0 °F 68% 30.19 in 10.0 mi ESE 16.1 mph - N/A   Scattered Clouds
9:45 AM 64.4 °F 51.8 °F 64% 30.18 in 10.0 mi East 16.1 mph - N/A   Clear
10:55 AM 69.8 °F 53.6 °F 56% 30.18 in 10.0 mi East 11.5 mph - N/A   Clear
11:55 AM 73.4 °F 57.2 °F 57% 30.16 in 10.0 mi SSE 11.5 mph - N/A   Scattered Clouds
1:50 PM 75.2 °F 59.0 °F 57% 30.13 in 10.0 mi SE 11.5 mph - N/A   Overcast
2:50 PM 77.0 °F 60.8 °F 57% 30.11 in 10.0 mi ESE 11.5 mph - N/A   Mostly Cloudy
3:56 PM 78.8 °F 60.8 °F 54% 30.07 in 10.0 mi ESE 12.7 mph 20.7 mph N/A   Mostly Cloudy
4:50 PM 78.8 °F 60.8 °F 54% 30.06 in 10.0 mi ESE 12.7 mph 19.6 mph N/A   Mostly Cloudy
5:50 PM 75.2 °F 60.8 °F 61% 30.03 in 10.0 mi ESE 13.8 mph - N/A   Mostly Cloudy
7:50 PM 75.2 °F 60.8 °F 61% 30.01 in 10.0 mi South 13.8 mph - N/A   Mostly Cloudy
8:50 PM 73.4 °F 60.8 °F 65% 30.02 in 10.0 mi SSE 11.5 mph - N/A   Scattered Clouds
9:50 PM 73.4 °F 60.8 °F 65% 30.02 in 10.0 mi SSE 13.8 mph - N/A   Overcast
10:15 PM 73.4 °F 60.8 °F 65% 30.03 in 10.0 mi SE 8.1 mph - N/A   Mostly Cloudy
10:35 PM 73.0 °F 60.8 °F 65% 30.02 in 10.0 mi SE 9.2 mph - N/A   Scattered Clouds
10:55 PM 73.0 °F 60.8 °F 65% 30.02 in 10.0 mi SE 9.2 mph - N/A   Scattered Clouds
11:15 PM 72.5 °F 61.0 °F 67% 30.02 in 10.0 mi SE 6.9 mph - N/A   Scattered Clouds
11:35 PM 72.0 °F 61.0 °F 68% 30.03 in 10.0 mi SE 6.9 mph - N/A   Scattered Clouds
11:55 PM 71.6 °F 61.0 °F 69% 30.02 in 10.0 mi SE 6.9 mph - N/A   Mostly Cloudy